     2              OBSERVATION DATA    GPS                 RINEX VERSION / TYPE
GESARX 07-Mar-1990 USGS 07.04.95 16:05                      PGM / RUN BY / DATE
                                                            COMMENT
Transfer TI4100 GESAR --> Rinex Observation File            COMMENT
Original Marker Name: JPAR                                  COMMENT
Campaign Name: USGS-Mar 90 So CA                            COMMENT
4-Character Station Name: JPAR                              COMMENT
6-Character Antenna Code: TI4100                            COMMENT
Vertical Measurement Point: PAE                             COMMENT
Vertical Offset to Rinex Ref. Point: 0.0000                 COMMENT
Radial Measurement Point: PAE                               COMMENT
Radial Offset to Rinex Ref. Point: 0.0842                   COMMENT
Antenna Height from Field Measurement: 1.4790 m             COMMENT
Original XYZ: -2493129.7689 -4655332.1539 3565498.2596      COMMENT
New XYZ position is based on association with SCEC monument COMMENT
E1C7Z5U5+0051. Position of that monument is believed to be  COMMENT
valid to within 1 m horizontally; vertical accuracy         COMMENT
should be no worse than 3-times this value.                 COMMENT
                                                            COMMENT
Revised Rinex header created by UCSD GPS archive for        COMMENT
GSAC on 24-Mar-2000 (2000:084) 17:37:06 GMT                 COMMENT
For assistance contact dagnew@ucsd.edu or hjohnson@ucsd.edu COMMENT
                                                            COMMENT
JPL ARIES NO 1 1975                                         MARKER NAME
Clark US GEOLOGICAL SURVEY                                  OBSERVER / AGENCY
UT14 TI 4100 GESAR 1.6                                      REC # / TYPE / VERS
4015 TI 4100                                                ANT # / TYPE
 -2493129.8915 -4655332.1118  3565498.3483                  APPROX POSITION XYZ
        1.4766        0.0000        0.0000                  ANTENNA: DELTA H/E/N
     1     1     0                                          WAVELENGTH FACT L1/2
     4    L1    L2    P1    P2                              # / TYPES OF OBSERV
    30                                                      INTERVAL
  1990     3    27     0    46   59.000000                  TIME OF FIRST OBS
  1990     3    27     8    43   29.000000                  TIME OF LAST OBS
                                                            END OF HEADER
 90  3 27  0 46 59.0800000  0  2  6  2
         -.434 8          .120 7  22429387.866 8  22429398.806 7
          .449 1         -.152 1  22346721.532 1  22346733.420 1
 90  3 27  0 47 29.0800000  0  2  6  2
    -62337.575 8    -48574.138 7  22417524.515 8  22417535.307 7
     70477.146 1     54916.636 1  22360131.557 1  22360143.915 1
 90  3 27  0 47 59.0800000  0  2  6  2
   -124629.260 8    -97112.976 8  22405672.154 8  22405681.978 8
    141052.656 1    109910.444 1  22373563.211 1  22373574.264 1
 90  3 27  0 48 29.0800000  0  2  6  2
   -186875.055 8   -145616.035 8  22393827.070 8  22393836.228 8
    211730.420 1    164983.951 1  22387014.141 1  22387024.085 1
 90  3 27  0 48 59.0800000  0  2  6  2
   -249072.726 9   -194081.615 7  22381991.165 9  22382000.180 7
    282510.849 1    220137.452 1  22400482.553 1  22400493.551 1
 90  3 27  0 49 29.0800000  0  2  6  2
   -311223.042 8   -242510.314 8  22370162.856 8  22370174.442 8
    353392.458 1    275369.803 1  22413970.729 1  22413981.481 1
 90  3 27  0 49 59.0800000  0  2  6  2
   -373324.682 8   -290901.052 8  22358345.834 8  22358356.285 8
    424372.902 1    330679.170 1  22427478.285 1  22427488.231 1
 90  3 27  0 50 29.0800000  0  2  6  2
   -435375.735 9   -339252.391 8  22346537.473 9  22346548.362 8
    495457.634 1    386069.795 1  22441005.105 1  22441015.506 1
 90  3 27  0 50 59.0800000  0  2  6  2
   -497375.378 8   -387563.653 8  22334739.306 8  22334750.155 8
    566644.453 1    441539.971 1  22454550.485 1  22454562.743 1
 90  3 27  0 51 29.0800000  0  2  6  2
   -559324.488 8   -435835.556 8  22322951.138 8  22322961.454 8
    637932.058 1    497088.677 1  22468117.901 1  22468127.509 1
 90  3 27  0 51 59.0800000  0  2  6  2
   -621221.209 8   -484066.640 7  22311172.190 8  22311182.772 7
    709317.889 1    552713.920 1  22481701.868 1  22481711.867 1
